Retour au catalogue

GEESAT 4-11

ActifCommunicationsLEO
NORAD 65129·PAYLOAD·🇨🇳 China

Lancé Aug 8, 2025 depuis Yellow Sea Launch Area

Loading…

Prochains Passages (prochaines 24 heures)

TLE

FraisSource: Space-Track

Époque: Sep 14, 2026, 22:15 UTC

1 65129U 25170L   26257.92754081  .00001236  00000-0  17288-3 0  9997
2 65129  49.9835 117.4390 0007260  75.7960 284.3785 14.84261409 59760

Suivez GEESAT 4-11 en temps réel avec AllMySat

Download on the App Store